Location: Fort Wayne
(41.1310°N, 85.1290°W)
Time: 16:08:27
(UTC-04:00)

COSMOS 2406 - Visible Passes

Search period start: 23 September 2017 00:00
Search period end: 03 October 2017 00:00
Orbit: 842 x 865 km, 71.0° (Epoch: 23 September)

Date Brightness Start Highest point End Pass type
(mag) Time Alt. Az. Time Alt. Az. Time Alt. Az.
23 Sep 5.0 05:57:13 10° N 06:02:25 34° ENE 06:07:37 10° ESE visible
23 Sep 3.1 20:50:08 10° SSW 20:55:46 69° ESE 21:01:29 10° NNE visible
23 Sep 5.6 22:36:32 10° W 22:40:38 20° NW 22:44:47 10° N visible
24 Sep 4.9 05:45:46 10° N 05:51:00 34° ENE 05:56:13 10° ESE visible
24 Sep 3.1 20:38:42 10° SSW 20:44:21 70° ESE 20:50:04 10° NNE visible
24 Sep 5.7 22:25:09 10° W 22:29:13 20° NW 22:33:20 10° N visible
25 Sep 4.9 05:34:20 10° N 05:39:35 34° ENE 05:44:48 10° ESE visible
25 Sep 3.2 20:27:16 10° SSW 20:32:55 71° ESE 20:38:39 10° NNE visible
25 Sep 5.7 22:13:46 10° W 22:17:49 19° NW 22:21:54 10° N visible
26 Sep 4.8 05:22:54 10° N 05:28:10 35° ENE 05:33:24 10° ESE visible
26 Sep 3.2 20:15:49 10° SSW 20:21:30 72° ESE 20:27:14 10° NNE visible
26 Sep 5.8 22:02:23 10° W 22:06:24 19° NW 22:10:27 10° N visible
27 Sep 4.8 05:11:28 10° N 05:16:45 35° ENE 05:22:00 10° ESE visible
27 Sep 3.8 06:55:50 10° NW 07:01:00 35° WSW 07:06:08 10° SSW visible
27 Sep 3.2 20:04:23 10° SSW 20:10:04 73° ESE 20:15:48 10° NNE visible
27 Sep 5.8 21:51:00 10° W 21:55:00 19° NW 21:59:00 10° N visible
28 Sep 4.7 05:00:02 10° N 05:05:20 36° ENE 05:10:36 10° SE visible
28 Sep 3.8 06:44:26 10° NW 06:49:35 34° WSW 06:54:41 10° SSW visible
28 Sep 3.2 19:52:58 10° SSW 19:58:38 74° ESE 20:04:23 10° NNE visible
28 Sep 5.8 21:39:38 10° W 21:43:35 19° NW 21:47:34 10° N visible
29 Sep 4.7 04:48:36 10° N 04:53:55 36° ENE 04:59:11 10° SE visible
29 Sep 3.8 06:33:01 10° NW 06:38:09 34° WSW 06:43:14 10° SSW visible
29 Sep 3.2 19:41:32 10° SSW 19:47:13 75° ESE 19:52:57 10° NNE visible
29 Sep 5.8 21:28:15 10° W 21:32:10 19° NW 21:36:07 10° N visible
30 Sep 4.6 04:37:11 10° N 04:42:30 37° ENE 04:47:47 10° SE visible
30 Sep 3.8 06:21:37 10° NW 06:26:43 33° WSW 06:31:47 10° SSW visible
30 Sep 5.9 21:16:52 10° W 21:20:45 18° NW 21:24:40 10° N visible
01 Oct 4.5 04:25:45 10° N 04:31:05 37° ENE 04:36:24 10° SE visible
01 Oct 3.8 06:10:13 10° NW 06:15:17 33° WSW 06:20:20 10° SSW visible
01 Oct 5.9 21:05:30 10° W 21:09:21 18° NW 21:13:14 10° N visible
02 Oct 4.7 04:14:18 10° N 04:21:24 31° E 04:25:00 10° SE visible
02 Oct 3.8 06:04:00 32° WSW 06:04:00 32° WSW 06:08:53 10° SSW visible
02 Oct 5.9 20:54:08 10° W 20:57:56 18° NW 21:01:47 10° N visible
